Tracking 35280 objects as of 7-Sep-2026
HD Live streaming from Space Station
objects crossing your sky now

STARLINK 1030


STARLINK 1030 is no longer on orbit
STARLINK 1030 is classified as:


NORAD ID: 44735
Int'l Code: 2019-074Y
Launch date: November 11, 2019
Source: United States (US)
Launch site: AIR FORCE EASTERN TEST RANGE (AFETR)
Decay date: 2025-09-19
Your satellite tracking list
Your tracking list is empty




NASA's NSSDC Master Catalog

Two Line Element Set (TLE):
1 44735U 19074Y   25262.38420304  .12673879  12495-4  23705-3 0  9993
2 44735  53.0281 194.0307 0006753 236.6120 123.4284 16.47034254323502
Source of the keplerian elements: AFSPC